User: anonymous   Login
Location: Unspecified
(0.0000°N, 0.0000°E)
Time: 09:44:52
(UTC+00:00)
Language:

Marecs 1 - Orbit

View from above orbital plane
View from above orbital plane
View from above satellite
View from above satellite

Ground track
Ground track

The orbit data is extracted from the following two-line orbital elements,

1 13010U 81122A   18015.24238449 -.00000213  00000-0  00000+0 0  9996
2 13010  15.4048 351.2442 0114932 193.1945  25.4441  0.95039964 82120
Epoch (UTC): 15 January 2018 05:49:02
Eccentricity: 0.0114932
inclination: 15.4048°
perigee height: 36817 km
apogee height: 37822 km
right ascension of ascending node: 351.2442°
argument of perigee: 193.1945°
revolutions per day: 0.95039964
mean anomaly at epoch: 25.4441°
orbit number at epoch: 8212

The dashed part of the orbit path shows where the satellite is in the earth's shadow,  

DLR